Terminal Aerodrome Forecast
Issued by NWS Newport/Morehead City, NC

Home | Current Version | Previous Version | Text Only | Print | Product List | Glossary On
Versions: 1 2 3 4 5 6 7 8 9 10 11 12 13 14 15 16 17 18 19 20 21 22 23 24
000
FTUS42 KMHX 172330
TAFEWN
TAF
KEWN 172330Z 1800/1824 20007KT P6SM FEW250
     FM181000 22005KT P6SM SCT015
     FM181300 22006KT P6SM FEW250
     FM181600 20008G16KT P6SM SCT050=

USA.gov is the U.S. government's official web portal to all federal, state and local government web resources and services.